| time (UTC) | temp F | wind direction | speed MPH | gust MPH | rain 1hr in | rain 24hr in | rain mn in | humidity % | barometer mb |
| 20260510234601 | 67 | 241 | 0.0 | 7.0 | 0.00 | 0.00 | 0.00 | 57 | 1019.5 |
| 20260510234551 | 68 | 277 | 2.0 | 7.0 | 0.00 | 0.00 | 0.00 | 57 | 1019.0 |
| 20260510233650 | 68 | 277 | 2.0 | 8.0 | 0.00 | 0.00 | 0.00 | 61 | 1018.9 |
| 20260510233003 | 67 | 343 | 2.0 | 6.0 | 0.00 | 0.00 | 0.00 | 58 | 1019.5 |
| 20260510232750 | 67 | 248 | 2.0 | 5.0 | 0.00 | 0.00 | 0.00 | 60 | 1019.0 |
| 20260510231851 | 67 | 221 | 2.0 | 6.0 | 0.00 | 0.00 | 0.00 | 59 | 1019.1 |
| 20260510231601 | 67 | 290 | 2.0 | 6.0 | 0.00 | 0.00 | 0.00 | 58 | 1019.5 |
| 20260510230951 | 68 | 216 | 2.0 | 8.0 | 0.00 | 0.00 | 0.00 | 59 | 1019.1 |
| 20260510230050 | 68 | 223 | 2.0 | 9.0 | 0.00 | 0.00 | 0.00 | 58 | 1019.1 |
| 20260510230002 | 68 | 233 | 1.0 | 9.0 | 0.00 | 0.00 | 0.00 | 58 | 1019.6 |
| 20260510224609 | 68 | 211 | 2.0 | 7.0 | 0.00 | 0.00 | 0.00 | 57 | 1019.6 |
| 20260510223350 | 66 | 171 | 3.0 | 8.0 | 0.00 | 0.00 | 0.00 | 62 | 1019.1 |
| 20260510223002 | 65 | 237 | 2.0 | 8.0 | 0.00 | 0.00 | 0.00 | 63 | 1019.7 |
| 20260510221603 | 65 | 201 | 0.0 | 6.0 | 0.00 | 0.00 | 0.00 | 65 | 1019.7 |
| 20260510221550 | 65 | 229 | 2.0 | 7.0 | 0.00 | 0.00 | 0.00 | 64 | 1019.2 |
| 20260510220650 | 64 | 240 | 3.0 | 7.0 | 0.00 | 0.00 | 0.00 | 67 | 1019.3 |
| 20260510220000 | 63 | 177 | 3.0 | 7.0 | 0.00 | 0.00 | 0.00 | 66 | 1019.8 |
| 20260510215750 | 64 | 238 | 2.0 | 6.0 | 0.00 | 0.00 | 0.00 | 65 | 1019.2 |
| 20260510214850 | 64 | 211 | 2.0 | 9.0 | 0.00 | 0.00 | 0.00 | 64 | 1019.2 |
| 20260510214602 | 64 | 240 | 1.0 | 6.0 | 0.00 | 0.00 | 0.00 | 65 | 1019.6 |
| 20260510213951 | 65 | 208 | 2.0 | 6.0 | 0.00 | 0.00 | 0.00 | 63 | 1019.1 |
| 20260510213051 | 65 | 209 | 2.0 | 10.0 | 0.00 | 0.00 | 0.00 | 63 | 1019.2 |
| 20260510213002 | 65 | 223 | 3.0 | 10.0 | 0.00 | 0.00 | 0.00 | 64 | 1019.6 |
| 20260510212150 | 66 | 202 | 3.0 | 8.0 | 0.00 | 0.00 | 0.00 | 65 | 1019.2 |
| 20260510211638 | 65 | 203 | 2.0 | 9.0 | 0.00 | 0.00 | 0.00 | 66 | 1019.5 |
| 20260510211250 | 65 | 176 | 3.0 | 9.0 | 0.00 | 0.00 | 0.00 | 65 | 1019.1 |
| 20260510210002 | 64 | 110 | 2.0 | 9.0 | 0.00 | 0.00 | 0.00 | 66 | 1019.5 |
| 20260510205450 | 65 | 176 | 3.0 | 11.0 | 0.00 | 0.00 | 0.00 | 64 | 1018.9 |
| 20260510204602 | 65 | 188 | 1.0 | 9.0 | 0.00 | 0.00 | 0.00 | 63 | 1019.6 |
| 20260510204550 | 66 | 178 | 4.0 | 9.0 | 0.00 | 0.00 | 0.00 | 63 | 1019.1 |
| 20260510203002 | 65 | 275 | 4.0 | 11.0 | 0.00 | 0.00 | 0.00 | 64 | 1019.3 |
| 20260510202750 | 64 | 219 | 3.0 | 7.0 | 0.00 | 0.00 | 0.00 | 65 | 1018.8 |
| 20260510201601 | 64 | 197 | 3.0 | 9.0 | 0.00 | 0.00 | 0.00 | 65 | 1019.1 |
| 20260510200950 | 64 | 160 | 2.0 | 6.0 | 0.00 | 0.00 | 0.00 | 66 | 1018.6 |
| 20260510200050 | 64 | 176 | 2.0 | 8.0 | 0.00 | 0.00 | 0.00 | 65 | 1018.5 |
| 20260510200002 | 63 | 153 | 4.0 | 8.0 | 0.00 | 0.00 | 0.00 | 64 | 1019.0 |
| 20260510195150 | 64 | 171 | 1.0 | 7.0 | 0.00 | 0.00 | 0.00 | 64 | 1018.4 |
| 20260510194619 | 64 | 146 | 1.0 | 5.0 | 0.00 | 0.00 | 0.00 | 66 | 1018.8 |
| 20260510194250 | 64 | 211 | 2.0 | 5.0 | 0.00 | 0.00 | 0.00 | 64 | 1018.4 |
| 20260510193351 | 65 | 170 | 2.0 | 6.0 | 0.00 | 0.00 | 0.00 | 63 | 1018.4 |
| 20260510193001 | 64 | 155 | 3.0 | 6.0 | 0.00 | 0.00 | 0.00 | 65 | 1018.7 |
| 20260510192450 | 64 | 258 | 1.0 | 7.0 | 0.00 | 0.00 | 0.00 | 64 | 1018.3 |
| 20260510191619 | 63 | 228 | 2.0 | 9.0 | 0.00 | 0.00 | 0.00 | 67 | 1018.8 |
| 20260510191550 | 64 | 193 | 2.0 | 9.0 | 0.00 | 0.00 | 0.00 | 67 | 1018.3 |
| 20260510190002 | 62 | 79 | 1.0 | 6.0 | 0.00 | 0.00 | 0.00 | 70 | 1018.7 |
| 20260510184850 | 62 | 208 | 1.0 | 4.0 | 0.00 | 0.00 | 0.00 | 72 | 1018.3 |
| 20260510184603 | 61 | 154 | 0.0 | 6.0 | 0.00 | 0.00 | 0.00 | 73 | 1018.8 |
| 20260510183950 | 61 | 177 | 2.0 | 6.0 | 0.00 | 0.00 | 0.00 | 74 | 1018.4 |
| 20260510183002 | 60 | 167 | 2.0 | 6.0 | 0.00 | 0.00 | 0.00 | 74 | 1018.6 |
| 20260510182150 | 61 | 136 | 2.0 | 9.0 | 0.00 | 0.00 | 0.00 | 74 | 1018.1 |
| 20260510181610 | 60 | 144 | 1.0 | 4.0 | 0.00 | 0.00 | 0.00 | 76 | 1018.7 |
| 20260510181250 | 61 | 146 | 1.0 | 4.0 | 0.00 | 0.00 | 0.00 | 77 | 1018.2 |
| 20260510180350 | 59 | 155 | 1.0 | 6.0 | 0.00 | 0.00 | 0.00 | 77 | 1018.2 |
| 20260510180002 | 58 | 192 | 1.0 | 6.0 | 0.00 | 0.00 | 0.00 | 78 | 1018.5 |
| 20260510175450 | 59 | 179 | 1.0 | 4.0 | 0.00 | 0.00 | 0.00 | 77 | 1018.1 |
| 20260510174608 | 58 | 166 | 1.0 | 4.0 | 0.00 | 0.00 | 0.00 | 78 | 1018.7 |
| 20260510174550 | 58 | 184 | 1.0 | 4.0 | 0.00 | 0.00 | 0.00 | 78 | 1018.2 |
| 20260510173650 | 58 | 214 | 1.0 | 4.0 | 0.00 | 0.00 | 0.00 | 79 | 1018.0 |
| 20260510173001 | 58 | 114 | 0.0 | 5.0 | 0.00 | 0.00 | 0.00 | 78 | 1018.4 |
| 20260510172751 | 58 | 194 | 2.0 | 6.0 | 0.00 | 0.00 | 0.00 | 79 | 1017.9 |
| 20260510171602 | 57 | 6 | 1.0 | 5.0 | 0.00 | 0.00 | 0.00 | 79 | 1018.3 |
| 20260510170950 | 58 | 173 | 1.0 | 6.0 | 0.00 | 0.00 | 0.00 | 81 | 1017.6 |
| 20260510170002 | 57 | 219 | 1.0 | 7.0 | 0.00 | 0.00 | 0.00 | 81 | 1017.8 |
| 20260510165151 | 57 | 203 | 1.0 | 7.0 | 0.00 | 0.00 | 0.00 | 81 | 1017.6 |
| 20260510164625 | 56 | 257 | 1.0 | 5.0 | 0.00 | 0.00 | 0.00 | 81 | 1018.1 |
| 20260510164251 | 56 | 177 | 1.0 | 5.0 | 0.00 | 0.00 | 0.00 | 81 | 1017.6 |
| 20260510163351 | 56 | 197 | 1.0 | 3.0 | 0.00 | 0.00 | 0.00 | 82 | 1017.6 |
| 20260510163001 | 56 | 186 | 0.0 | 5.0 | 0.00 | 0.00 | 0.00 | 81 | 1018.0 |
| 20260510162450 | 56 | 161 | 1.0 | 5.0 | 0.00 | 0.00 | 0.00 | 82 | 1017.5 |
| 20260510161601 | 55 | 29 | 0.0 | 6.0 | 0.00 | 0.00 | 0.00 | 82 | 1018.2 |
| 20260510161551 | 56 | 200 | 1.0 | 6.0 | 0.00 | 0.00 | 0.00 | 82 | 1017.7 |
| 20260510160132 | 55 | 215 | 1.0 | 6.0 | 0.00 | 0.00 | 0.00 | 84 | 1018.0 |
| 20260510155752 | 55 | 148 | 1.0 | 6.0 | 0.00 | 0.00 | 0.00 | 84 | 1017.4 |
| 20260510154851 | 55 | 0 | 0.0 | 3.0 | 0.00 | 0.00 | 0.00 | 85 | 1017.0 |
| 20260510154503 | 54 | 195 | 1.0 | 3.0 | 0.00 | 0.00 | 0.00 | 86 | 1017.5 |
| 20260510153101 | 54 | 162 | 0.0 | 5.0 | 0.00 | 0.00 | 0.00 | 87 | 1017.5 |
| 20260510153051 | 54 | 138 | 2.0 | 5.0 | 0.00 | 0.00 | 0.00 | 87 | 1017.0 |
| 20260510152151 | 54 | 128 | 1.0 | 7.0 | 0.00 | 0.00 | 0.00 | 88 | 1016.9 |
| 20260510151502 | 53 | 170 | 1.0 | 5.0 | 0.00 | 0.00 | 0.00 | 89 | 1017.2 |
| 20260510151251 | 53 | 0 | 0.0 | 3.0 | 0.00 | 0.00 | 0.00 | 89 | 1016.6 |
| 20260510150350 | 52 | 155 | 1.0 | 3.0 | 0.00 | 0.00 | 0.00 | 90 | 1016.6 |
| 20260510150111 | 52 | 167 | 0.0 | 3.0 | 0.00 | 0.00 | 0.00 | 91 | 1017.3 |
| 20260510145451 | 52 | 152 | 0.0 | 2.0 | 0.00 | 0.00 | 0.00 | 91 | 1016.9 |
| 20260510144551 | 52 | 140 | 1.0 | 1.0 | 0.00 | 0.00 | 0.00 | 91 | 1016.5 |
| 20260510144502 | 51 | 168 | 0.0 | 1.0 | 0.00 | 0.00 | 0.00 | 91 | 1017.2 |
| 20260510143650 | 51 | 130 | 1.0 | 4.0 | 0.00 | 0.00 | 0.00 | 91 | 1016.8 |
| 20260510143101 | 51 | 103 | 2.0 | 4.0 | 0.00 | 0.00 | 0.00 | 92 | 1017.3 |
| 20260510142750 | 51 | 132 | 1.0 | 4.0 | 0.00 | 0.00 | 0.00 | 92 | 1016.8 |
| 20260510141851 | 51 | 0 | 0.0 | 5.0 | 0.00 | 0.00 | 0.00 | 93 | 1016.8 |
| 20260510141502 | 50 | 169 | 1.0 | 5.0 | 0.00 | 0.00 | 0.00 | 93 | 1017.2 |
| 20260510140951 | 50 | 0 | 0.0 | 2.0 | 0.00 | 0.00 | 0.00 | 94 | 1016.7 |
| 20260510140101 | 49 | 117 | 0.0 | 0.0 | 0.00 | 0.00 | 0.00 | 94 | 1016.7 |
| 20260510140051 | 50 | 0 | 0.0 | 0.0 | 0.00 | 0.00 | 0.00 | 94 | 1016.2 |
| 20260510135151 | 49 | 0 | 0.0 | 0.0 | 0.00 | 0.00 | 0.00 | 94 | 1016.4 |
| 20260510134502 | 49 | 161 | 0.0 | 0.0 | 0.00 | 0.00 | 0.00 | 94 | 1017.0 |
| 20260510133351 | 49 | 137 | 0.0 | 3.0 | 0.00 | 0.00 | 0.00 | 94 | 1016.8 |
| 20260510133101 | 48 | 122 | 0.0 | 3.0 | 0.00 | 0.00 | 0.00 | 94 | 1017.4 |
| 20260510131502 | 48 | 153 | 0.0 | 3.0 | 0.00 | 0.00 | 0.00 | 95 | 1016.8 |
| 20260510130652 | 48 | 0 | 0.0 | 2.0 | 0.00 | 0.00 | 0.00 | 93 | 1016.3 |
| 20260510125751 | 48 | 0 | 0.0 | 0.0 | 0.00 | 0.00 | 0.00 | 93 | 1016.3 |
| 20260510124851 | 49 | 0 | 0.0 | 0.0 | 0.00 | 0.00 | 0.00 | 93 | 1016.3 |
| 20260510124504 | 48 | 139 | 0.0 | 0.0 | 0.00 | 0.00 | 0.00 | 93 | 1016.8 |
| 20260510123951 | 49 | 0 | 0.0 | 2.0 | 0.00 | 0.00 | 0.00 | 93 | 1016.5 |
| 20260510123102 | 49 | 139 | 0.0 | 2.0 | 0.00 | 0.00 | 0.00 | 93 | 1017.1 |
| 20260510123051 | 49 | 0 | 0.0 | 2.0 | 0.00 | 0.00 | 0.00 | 93 | 1016.6 |
| 20260510122151 | 49 | 0 | 0.0 | 1.0 | 0.00 | 0.00 | 0.00 | 92 | 1016.6 |
| 20260510121504 | 49 | 161 | 0.0 | 4.0 | 0.00 | 0.00 | 0.00 | 92 | 1017.3 |
| 20260510121251 | 50 | 0 | 0.0 | 4.0 | 0.00 | 0.00 | 0.00 | 92 | 1016.8 |
| 20260510120351 | 50 | 0 | 0.0 | 0.0 | 0.00 | 0.00 | 0.00 | 92 | 1016.9 |
| 20260510120103 | 50 | 162 | 0.0 | 0.0 | 0.00 | 0.00 | 0.00 | 91 | 1017.3 |
| 20260510115451 | 50 | 130 | 1.0 | 3.0 | 0.00 | 0.00 | 0.00 | 91 | 1016.8 |
| 20260510114551 | 51 | 125 | 2.0 | 5.0 | 0.00 | 0.00 | 0.00 | 92 | 1016.6 |
| 20260510114502 | 50 | 148 | 0.0 | 5.0 | 0.00 | 0.00 | 0.00 | 92 | 1017.1 |
| 20260510113651 | 51 | 132 | 1.0 | 3.0 | 0.00 | 0.00 | 0.00 | 92 | 1016.6 |
| 20260510113105 | 50 | 120 | 1.0 | 4.0 | 0.00 | 0.00 | 0.00 | 92 | 1017.1 |
| 20260510111502 | 50 | 175 | 0.0 | 3.0 | 0.00 | 0.00 | 0.00 | 93 | 1017.1 |
| 20260510110951 | 50 | 0 | 0.0 | 2.0 | 0.00 | 0.00 | 0.00 | 92 | 1016.5 |
| 20260510110111 | 50 | 105 | 0.0 | 3.0 | 0.00 | 0.00 | 0.00 | 92 | 1016.8 |
| 20260510110051 | 50 | 0 | 0.0 | 1.0 | 0.00 | 0.00 | 0.00 | 92 | 1016.3 |
| 20260510103351 | 51 | 145 | 1.0 | 4.0 | 0.00 | 0.00 | 0.00 | 91 | 1016.5 |
| 20260510103102 | 50 | 163 | 1.0 | 4.0 | 0.00 | 0.00 | 0.00 | 92 | 1016.9 |
| 20260510102451 | 51 | 0 | 0.0 | 3.0 | 0.00 | 0.00 | 0.00 | 91 | 1016.4 |
| 20260510101551 | 51 | 0 | 0.0 | 6.0 | 0.00 | 0.00 | 0.00 | 91 | 1015.9 |
| 20260510101503 | 51 | 190 | 0.0 | 6.0 | 0.00 | 0.00 | 0.00 | 91 | 1016.5 |
| 20260510100651 | 51 | 187 | 1.0 | 2.0 | 0.00 | 0.00 | 0.00 | 91 | 1015.7 |
| 20260510094511 | 51 | 220 | 1.0 | 8.0 | 0.00 | 0.00 | 0.00 | 90 | 1016.4 |
| 20260510093951 | 52 | 0 | 0.0 | 3.0 | 0.00 | 0.00 | 0.00 | 90 | 1015.9 |
| 20260510093121 | 51 | 221 | 0.0 | 1.0 | 0.00 | 0.00 | 0.00 | 89 | 1016.5 |
| 20260510092151 | 52 | 191 | 1.0 | 4.0 | 0.00 | 0.00 | 0.00 | 88 | 1015.9 |
| 20260510091505 | 52 | 181 | 0.0 | 5.0 | 0.00 | 0.00 | 0.00 | 88 | 1016.5 |
| 20260510091251 | 52 | 242 | 0.0 | 5.0 | 0.00 | 0.00 | 0.00 | 89 | 1016.0 |
| 20260510090351 | 52 | 187 | 1.0 | 4.0 | 0.00 | 0.00 | 0.00 | 88 | 1015.9 |
| 20260510084502 | 52 | 191 | 0.0 | 5.0 | 0.00 | 0.00 | 0.00 | 89 | 1016.4 |
| 20260510083651 | 52 | 158 | 0.0 | 3.0 | 0.00 | 0.00 | 0.00 | 89 | 1015.8 |
| 20260510083103 | 52 | 139 | 0.0 | 3.0 | 0.00 | 0.00 | 0.00 | 90 | 1016.3 |
| 20260510082751 | 52 | 0 | 0.0 | 3.0 | 0.00 | 0.00 | 0.00 | 89 | 1015.8 |
| 20260510081503 | 52 | 131 | 0.0 | 2.0 | 0.00 | 0.00 | 0.00 | 89 | 1016.2 |
| 20260510080952 | 53 | 0 | 0.0 | 1.0 | 0.00 | 0.00 | 0.00 | 88 | 1015.6 |
| 20260510080105 | 53 | 198 | 0.0 | 1.0 | 0.00 | 0.00 | 0.00 | 88 | 1016.2 |
| 20260510080051 | 53 | 0 | 0.0 | 3.0 | 0.00 | 0.00 | 0.00 | 88 | 1015.7 |
| 20260510075151 | 54 | 0 | 0.0 | 3.0 | 0.00 | 0.00 | 0.00 | 88 | 1015.6 |
| 20260510074502 | 53 | 89 | 0.0 | 4.0 | 0.00 | 0.00 | 0.00 | 88 | 1016.2 |
| 20260510074251 | 54 | 170 | 0.0 | 4.0 | 0.00 | 0.00 | 0.00 | 88 | 1015.5 |
| 20260510073351 | 54 | 352 | 0.0 | 4.0 | 0.00 | 0.00 | 0.00 | 88 | 1015.4 |
| 20260510073101 | 54 | 178 | 0.0 | 4.0 | 0.00 | 0.00 | 0.00 | 88 | 1015.9 |
| 20260510071551 | 55 | 0 | 0.0 | 3.0 | 0.00 | 0.00 | 0.00 | 88 | 1015.3 |
| 20260510071502 | 55 | 176 | 0.0 | 3.0 | 0.00 | 0.00 | 0.00 | 88 | 1015.8 |
| 20260510070651 | 55 | 0 | 0.0 | 2.0 | 0.00 | 0.00 | 0.00 | 87 | 1015.4 |
| 20260510065751 | 56 | 0 | 0.0 | 1.0 | 0.00 | 0.00 | 0.00 | 87 | 1015.2 |
| 20260510064851 | 56 | 0 | 0.0 | 2.0 | 0.00 | 0.00 | 0.00 | 86 | 1015.0 |
| 20260510064502 | 56 | 212 | 0.0 | 1.0 | 0.00 | 0.00 | 0.00 | 86 | 1015.6 |
| 20260510063102 | 56 | 238 | 0.0 | 2.0 | 0.00 | 0.00 | 0.00 | 86 | 1015.5 |
| 20260510063051 | 57 | 228 | 1.0 | 3.0 | 0.00 | 0.00 | 0.00 | 86 | 1015.0 |
| 20260510062151 | 57 | 266 | 0.0 | 4.0 | 0.00 | 0.00 | 0.00 | 87 | 1015.0 |
| 20260510061503 | 56 | 360 | 0.0 | 2.0 | 0.00 | 0.00 | 0.00 | 87 | 1015.6 |
| 20260510061251 | 56 | 0 | 0.0 | 3.0 | 0.00 | 0.00 | 0.00 | 87 | 1015.1 |
| 20260510060351 | 56 | 0 | 0.0 | 4.0 | 0.00 | 0.00 | 0.00 | 89 | 1015.1 |
| 20260510060104 | 55 | 321 | 0.0 | 4.0 | 0.00 | 0.00 | 0.00 | 89 | 1015.6 |
| 20260510055451 | 54 | 0 | 0.0 | 4.0 | 0.00 | 0.00 | 0.00 | 91 | 1015.3 |
| 20260510054551 | 52 | 0 | 0.0 | 1.0 | 0.00 | 0.00 | 0.00 | 89 | 1015.2 |
| 20260510054503 | 51 | 49 | 0.0 | 1.0 | 0.00 | 0.00 | 0.00 | 89 | 1015.7 |
| 20260510053106 | 52 | 356 | 0.0 | 0.0 | 0.00 | 0.00 | 0.00 | 87 | 1015.7 |
| 20260510052751 | 52 | 0 | 0.0 | 0.0 | 0.00 | 0.00 | 0.00 | 86 | 1015.0 |
| 20260510051851 | 53 | 0 | 0.0 | 1.0 | 0.00 | 0.00 | 0.00 | 85 | 1014.8 |
| 20260510051504 | 53 | 356 | 0.0 | 1.0 | 0.00 | 0.00 | 0.00 | 86 | 1015.5 |
| 20260510050951 | 53 | 0 | 0.0 | 0.0 | 0.00 | 0.00 | 0.00 | 85 | 1014.9 |
| 20260510050053 | 54 | 0 | 0.0 | 0.0 | 0.00 | 0.00 | 0.00 | 83 | 1014.9 |
| 20260510045151 | 54 | 0 | 0.0 | 0.0 | 0.00 | 0.00 | 0.00 | 82 | 1014.8 |
| 20260510044503 | 54 | 356 | 0.0 | 0.0 | 0.00 | 0.00 | 0.00 | 82 | 1015.3 |
| 20260510043106 | 55 | 356 | 0.0 | 0.0 | 0.00 | 0.00 | 0.00 | 80 | 1015.4 |
| 20260510042451 | 56 | 0 | 0.0 | 0.0 | 0.00 | 0.00 | 0.00 | 78 | 1014.8 |
| 20260510041551 | 57 | 0 | 0.0 | 0.0 | 0.00 | 0.00 | 0.00 | 77 | 1015.0 |
| 20260510041502 | 57 | 356 | 0.0 | 0.0 | 0.00 | 0.00 | 0.00 | 77 | 1015.3 |
| 20260510040651 | 58 | 0 | 0.0 | 0.0 | 0.00 | 0.00 | 0.00 | 76 | 1014.8 |
| 20260510035751 | 59 | 0 | 0.0 | 0.0 | 0.00 | 0.00 | 0.00 | 73 | 1014.7 |
| 20260510034851 | 60 | 0 | 0.0 | 0.0 | 0.00 | 0.00 | 0.00 | 73 | 1014.5 |
| 20260510034501 | 60 | 356 | 0.0 | 0.0 | 0.00 | 0.00 | 0.00 | 72 | 1015.3 |
| 20260510033952 | 61 | 0 | 0.0 | 0.0 | 0.00 | 0.00 | 0.00 | 70 | 1014.8 |
| 20260510033113 | 61 | 356 | 0.0 | 0.0 | 0.00 | 0.00 | 0.00 | 69 | 1015.3 |
| 20260510032151 | 63 | 0 | 0.0 | 0.0 | 0.00 | 0.00 | 0.00 | 67 | 1014.7 |
| 20260510031505 | 63 | 356 | 0.0 | 0.0 | 0.00 | 0.00 | 0.00 | 66 | 1015.2 |
| 20260510031251 | 64 | 0 | 0.0 | 0.0 | 0.00 | 0.00 | 0.00 | 66 | 1014.7 |
| 20260510030104 | 65 | 356 | 0.0 | 0.0 | 0.00 | 0.00 | 0.00 | 63 | 1015.2 |
| 20260510025451 | 66 | 0 | 0.0 | 0.0 | 0.00 | 0.00 | 0.00 | 62 | 1014.7 |
| 20260510024551 | 68 | 0 | 0.0 | 0.0 | 0.00 | 0.00 | 0.00 | 59 | 1014.7 |
| 20260510024502 | 67 | 356 | 0.0 | 0.0 | 0.00 | 0.00 | 0.00 | 60 | 1015.0 |
| 20260510023651 | 68 | 0 | 0.0 | 0.0 | 0.00 | 0.00 | 0.00 | 57 | 1014.6 |
| 20260510023101 | 68 | 310 | 0.0 | 2.0 | 0.00 | 0.00 | 0.00 | 57 | 1015.2 |
| 20260510022751 | 69 | 0 | 0.0 | 2.0 | 0.00 | 0.00 | 0.00 | 56 | 1014.6 |
| 20260510021851 | 70 | 0 | 0.0 | 1.0 | 0.00 | 0.00 | 0.00 | 56 | 1014.7 |
| 20260510020951 | 70 | 0 | 0.0 | 0.0 | 0.00 | 0.00 | 0.00 | 56 | 1014.8 |
| 20260510020101 | 70 | 312 | 0.0 | 3.0 | 0.00 | 0.00 | 0.00 | 57 | 1015.4 |
| 20260510020051 | 70 | 321 | 1.0 | 3.0 | 0.00 | 0.00 | 0.00 | 57 | 1014.9 |
| 20260510015151 | 70 | 311 | 1.0 | 3.0 | 0.00 | 0.00 | 0.00 | 55 | 1014.8 |
| 20260510014503 | 70 | 304 | 1.0 | 3.0 | 0.00 | 0.00 | 0.00 | 54 | 1015.6 |
| 20260510014252 | 71 | 323 | 1.0 | 4.0 | 0.00 | 0.00 | 0.00 | 56 | 1015.1 |
| 20260510013102 | 70 | 288 | 0.0 | 3.0 | 0.00 | 0.00 | 0.00 | 55 | 1015.7 |
| 20260510012451 | 71 | 0 | 0.0 | 0.0 | 0.00 | 0.00 | 0.00 | 56 | 1015.4 |
| 20260510011551 | 71 | 0 | 0.0 | 0.0 | 0.00 | 0.00 | 0.00 | 54 | 1015.4 |
| 20260510011502 | 71 | 254 | 0.0 | 0.0 | 0.00 | 0.00 | 0.00 | 53 | 1016.0 |
| 20260510005752 | 72 | 319 | 0.0 | 3.0 | 0.00 | 0.00 | 0.00 | 53 | 1015.5 |
| 20260510004851 | 72 | 316 | 1.0 | 5.0 | 0.00 | 0.00 | 0.00 | 55 | 1015.7 |
| 20260510004501 | 72 | 317 | 0.0 | 5.0 | 0.00 | 0.00 | 0.00 | 56 | 1016.1 |
| 20260510003952 | 73 | 327 | 1.0 | 5.0 | 0.00 | 0.00 | 0.00 | 54 | 1015.7 |
| 20260510003103 | 72 | 62 | 0.0 | 6.0 | 0.00 | 0.00 | 0.00 | 55 | 1016.2 |
| 20260510003051 | 73 | 346 | 1.0 | 6.0 | 0.00 | 0.00 | 0.00 | 55 | 1015.7 |
| 20260510002151 | 72 | 325 | 1.0 | 4.0 | 0.00 | 0.00 | 0.00 | 57 | 1015.8 |
| 20260510001502 | 72 | 338 | 0.0 | 5.0 | 0.00 | 0.00 | 0.00 | 58 | 1016.3 |
| 20260510001251 | 72 | 327 | 2.0 | 5.0 | 0.00 | 0.00 | 0.00 | 57 | 1015.7 |
| 20260510000104 | 72 | 271 | 2.0 | 7.0 | 0.00 | 0.00 | 0.00 | 56 | 1016.3 |
| 20260509235451 | 73 | 306 | 1.0 | 3.0 | 0.00 | 0.00 | 0.00 | 56 | 1015.9 |